This is the latest recevied weather packets stored in our database for station/object APPOWX. If no packets are shown the sender has not sent any weather packets the latest 10 day(s).
| Time | Temp. | Humidity | Pressure | Rain* | Wind** | Luminosity | Snow |
|---|---|---|---|---|---|---|---|
| 1778265499 | 18.89° C | 34% | 1017.4 hPa | 0 mm | - | - | - |
| 1778265439 | 18.89° C | 36% | 1017.4 hPa | 0 mm | - | - | - |
| 1778265378 | 18.89° C | 33% | 1017.3 hPa | 0 mm | - | - | - |
| 1778265319 | 18.89° C | 34% | 1017.4 hPa | 0 mm | - | - | - |
| 1778265259 | 18.89° C | 31% | 1017.5 hPa | 0 mm | - | - | - |
| 1778265198 | 18.89° C | 33% | 1017.4 hPa | 0 mm | - | - | - |
| 1778265138 | 19.44° C | 33% | 1017.5 hPa | 0 mm | - | - | - |
| 1778265079 | 19.44° C | 33% | 1017.3 hPa | 0 mm | - | - | - |
| 1778265018 | 19.44° C | 37% | 1017.4 hPa | 0 mm | - | - | - |
| 1778264958 | 20° C | 36% | 1017.3 hPa | 0 mm | - | - | - |
| 1778264899 | 20° C | 36% | 1017.4 hPa | 0 mm | - | - | - |
| 1778264838 | 19.44° C | 38% | 1017.3 hPa | 0 mm | - | - | - |
| 1778264778 | 20° C | 36% | 1017.3 hPa | 0 mm | - | - | - |
| 1778264718 | 19.44° C | 37% | 1017.4 hPa | 0 mm | - | - | - |
| 1778264658 | 18.89° C | 39% | 1017.6 hPa | 0 mm | - | - | - |
| 1778264598 | 18.89° C | 41% | 1017.4 hPa | 0 mm | - | - | - |
| 1778264538 | 18.89° C | 38% | 1017.5 hPa | 0 mm | - | - | - |
| 1778264478 | 18.89° C | 40% | 1017.4 hPa | 0 mm | - | - | - |
| 1778264418 | 18.89° C | 35% | 1017.2 hPa | 0 mm | - | - | - |
| 1778264358 | 19.44° C | 34% | 1017.5 hPa | 0 mm | - | - | - |
| 1778264298 | 20° C | 35% | 1017.6 hPa | 0 mm | - | - | - |
| 1778264238 | 19.44° C | 36% | 1017.7 hPa | 0 mm | - | - | - |
| 1778264178 | 20° C | 39% | 1017.5 hPa | 0 mm | - | - | - |
| 1778264118 | 20° C | 36% | 1017.5 hPa | 0 mm | - | - | - |
| 1778264058 | 20° C | 39% | 1017.5 hPa | 0 mm | - | - | - |
* Rain latest hour (hover to see other rain measurements)
** Current wind speed in m/s (hover to see current wind gust speed)